Home   Weather   Bühl   Past weeks

Flag for Germany Past Weather in Bühl, Baden-Württemberg, Germany — Yesterday and Last 2 Weeks

Now
28 °F

Ice fog.


Feels Like: 28 °F
Forecast: 23 / 36 °F
Wind: 2 mph from North

Location: Karlsruhe - Baden Wurttemberg

Current Time: Dec 5, 2016 at 9:59:33 pm

Latest Report: Dec 5, 2016 at 9:20 pm


Visibility: 0 mi

Pressure: 30.39 "Hg

Humidity: 100%

Dew Point: 28 °F

Location of BühlLocation

Past Weather in Bühl — Graph

°F

Bühl Temperature Yesterday

Maximum temperature yesterday: 37 °F (at 1:50 pm)
Minimum temperature yesterday: 19 °F (at 5:20 am)
Average temperature yesterday: 28 °F

High & Low Weather Summary for the Past Weeks

 TemperatureHumidityPressure
High54 °F (Nov 20, 8:20 pm)100% (Nov 21, 4:50 am)30.60 "Hg (Nov 21, 4:50 am)
Low18 °F (Nov 30, 7:20 am)52% (Nov 29, 2:20 pm)29.59 "Hg (Nov 21, 8:20 pm)
Average39 °F87%30.15 "Hg
* Reported Nov 20 8:20 pm — Dec 5 8:20 pm, Bühl, Weather by CustomWeather, © 2016

Note: Actual official high and low records may vary slightly from our data, if they occured in-between our weather recording intervals... More about our weather records

Advertising

Bühl Weather History for the Previous 24 Hours

Scroll right to see more
 ConditionsComfort  
Time TempWeatherWind HumidityBarometerVisibility
8:20 pm
Mon, Dec 5
30 °FIce fog.2 mph100%30.39 "Hg0 mi
7:50 pm30 °FIce fog.2 mph100%30.39 "Hg1 mi
7:20 pm30 °FIce fog.No wind100%30.39 "Hg1 mi
6:50 pm30 °FIce fog.1 mph100%30.39 "Hg1 mi
6:20 pm30 °FIce fog.1 mph100%30.36 "Hg1 mi
5:50 pm30 °FIce fog.2 mph100%30.39 "Hg1 mi
5:20 pm30 °FIce fog.5 mph100%30.36 "Hg1 mi
4:50 pm30 °FIce fog.3 mph100%30.36 "Hg1 mi
4:20 pm30 °FIce fog.2 mph100%30.36 "Hg1 mi
3:50 pm28 °FIce fog.3 mph100%30.36 "Hg1 mi
3:20 pm28 °FIce fog.3 mph100%30.36 "Hg1 mi
2:50 pm28 °FIce fog.2 mph100%30.36 "Hg1 mi
2:20 pm28 °FIce fog.1 mph100%30.36 "Hg1 mi
1:50 pm28 °FIce fog.2 mph100%30.36 "Hg1 mi
1:20 pm28 °FIce fog.No wind100%30.36 "Hg1 mi
12:50 pm28 °FIce fog.1 mph100%30.36 "Hg1 mi
12:20 pm28 °FIce fog.1 mph100%30.36 "Hg1 mi
11:50 am28 °FIce fog.1 mph100%30.36 "Hg1 mi
11:20 am28 °FIce fog.2 mph100%30.39 "Hg1 mi
10:50 am27 °FIce fog.2 mph100%30.39 "Hg1 mi
10:20 am27 °FIce fog.2 mph100%30.36 "Hg1 mi
9:50 am27 °FIce fog.3 mph100%30.36 "Hg1 mi
9:20 am27 °FIce fog.2 mph100%30.36 "Hg0 mi
8:50 am27 °FIce fog.3 mph100%30.36 "Hg0 mi
8:20 am27 °FIce fog.2 mph100%30.36 "Hg1 mi
7:50 am27 °FIce fog.2 mph100%30.36 "Hg1 mi
7:20 am25 °FIce fog.3 mph100%30.33 "Hg1 mi
6:50 am25 °FIce fog.5 mph100%30.33 "Hg1 mi
6:20 am27 °FIce fog.3 mph100%30.33 "Hg1 mi
5:50 am25 °FIce fog.5 mph100%30.33 "Hg1 mi
5:20 am25 °FIce fog.6 mph100%30.33 "Hg0 mi
4:50 am21 °FPassing clouds.3 mph100%30.33 "Hg4 mi
4:20 am19 °FClear.1 mph100%30.33 "Hg6 mi
12:20 am21 °FClear.No wind100%30.33 "Hg5 mi
11:50 pm
Sun, Dec 4
23 °FClear.No wind100%30.33 "Hg4 mi
11:20 pm23 °FClear.No wind100%30.33 "Hg4 mi
10:50 pm23 °FLight fog.No wind100%30.33 "HgN/A
10:20 pm23 °FLight fog.No wind100%30.33 "HgN/A
9:50 pm25 °FClear.No wind100%30.33 "Hg10 mi
9:20 pm25 °FClear.No wind100%30.33 "Hg10 mi
Weather by CustomWeather, © 2016

See weather overviewHow to use our weather pages